Location: Alvis C Story Elementary School
(33.0968°N, 96.6364°W)
Time: 21:46:05
(UTC+00:00)

Lacrosse 5 rocket - Pass Details

Date: 29 June 2022
Orbit: 456 x 628 km, 57.0° (Epoch: 13 August)

Event Time Altitude Azimuth Distance (km) Brightness Sun altitude
Rises 03:33:25 0° 340° (NNW) 2,605 6.0 -19.7°
Reaches altitude 10° 03:36:25 10° 5° (N) 1,757 4.4 -20.1°
Maximum altitude 03:38:39 14° 40° (NE) 1,520 3.6 -20.4°
Enters shadow 03:39:53 13° 60° (ENE) 1,614 3.6 -20.6°
